METEOR 2-17 DEB, 38283

Orbit data source: Space-Track

METEOR 2-17 DEB, 38283 is space debris in LEO originally from a launch on Sat, 30 Jan 1988 UTC launched from the Plesetsk Missile And Space Complex (PKMTR). Debris objects in space refer to the collection of defunct objects orbiting the Earth. Examples of debris include non-operational satellites, rocket bodies, and fragments generated from explosions, collisions, or faulty payload assembly.

Loading next visibility...
Identifier
38283, 1988-005AL
Orbit
LEO
Country
Flag of CISCIS
Related business
Manufacturer
Unknown
Mission
Spacecraft
Bus & Motor
Unknown
Mass
Unknown
Launch date (UTC)
1988-01-30 (38 years ago)
Launch vehicle
Unknown
Launch site
Plesetsk Missile And Space Complex (PKMTR)
Object type
Payload
Rocket body
Debris
Shape & HBR
Unknown
Radar Cross Section
Small (<0.1 m²)

Expand to show TLE details & history
Last TLE update: 3 days ago

TLE from 3 days ago
0 METEOR 2-17 DEB
1 38283U 88005AL  25258.41761844  .00001669  00000-0  11152-2 0  9996
2 38283  82.5493 135.1228 0018831 327.9541  32.0481 14.00394586 65279
Epoch: 2025-09-15T10:01Z
TLE epoch observation values (Epoch: 2025-09-15T10:01:22.233Z)
Latitude
-0.00008°
Longitude
-9.84242°
Altitude
883.754 km
Speed
7.416 km/s
True Right ascension
09h 00m 29s
True Declination
0° 00' 00"
Sunlit
Object was in daylight at epoch
Visualization orbit readout
Latitude
Unknown
Longitude
Unknown
Altitude
Unknown
Speed
Unknown
Apparent Right ascension
Unknown
Apparent Declination
Unknown
Sunlit
N/A
Visualization observer readout
Local Sidereal Time
14:44:34
Azimuth
Unknown
Elevation
Unknown
Doppler factor
Unknown
Orbital elements
Apogee altitude
903.244 km
Perigee altitude
875.873 km
Semi-major axis
7,267.695 km
Eccentricity
0.00188
Inclination
82.5493°
RAAN
135.1228°
Arg. of periapsis
327.9541°
True anomaly
32.16283°
Mean anomaly
32.0481°
Eccentric anomaly
32.10544°
Mean motion
3.50306 °/min
Orbital period
102.77 mins
BSTAR
0.0011152
Loading maneuver chart data...
Computing Atmospheric mass density...
Loading historical data...
Loading historical data...
Loading historical data...
Loading historical data...
Loading historical data...
Loading historical data...
Loading historical data...

Documentation

Showing up to 5 results
|